Regional Weather Roundup
Issued by NWS

Home | Current Version | Previous Version | Text Only | Print | Product List | Glossary On
Versions: 1 2 3 4 5 6 7 8 9 10 11 12 13 14 15 16 17 18 19 20 21 22 23 24 25 26 27 28 29 30 31 32 33 34 35 36 37 38 39 40 41 42 43 44 45 46 47 48 49 50
000
ASUS43 KMKX 051111
RWRWI

WISCONSIN REGIONAL WEATHER ROUNDUP
NATIONAL WEATHER SERVICE MILWAUKEE/SULLIVAN WI
600 AM CDT THU MAY 05 2016

NOTE: "FAIR" INDICATES FEW OR NO CLOUDS BELOW 12,000 FEET WITH NO
SIGNIFICANT WEATHER AND/OR OBSTRUCTIONS TO VISIBILITY.

WIZ001-002-006>008-014>016-023>028-051200-
NORTHWEST WISCONSIN

CITY           SKY/WX    TMP DP  RH WIND       PRES   REMARKS
SUPERIOR ARPT  CLOUDY    36  35  96 SW3       30.04R
ASHLAND        PTCLDY    30  29  96 SW5       30.02S WCI  25
HAYWARD        MOCLDY    30  27  88 CALM      30.03R
SIREN          LGT RAIN  38  32  80 CALM      30.04R
CUMBERLAND     CLOUDY    34  32  93 CALM      30.03R
RICE LAKE      CLOUDY    36  32  86 CALM      30.05R
CHETEK         CLOUDY    32  31  96 CALM      30.04R
LADYSMITH      CLOUDY    32  29  91 CALM      30.04R
EAU CLAIRE     PTCLDY    32  28  85 CALM      30.03R
MENOMONIE      PTCLDY    34  29  83 CALM      30.04R
NEW RICHMOND   CLOUDY    39  34  80 CALM      30.04R
OSCEOLA        CLOUDY    41  37  86 CALM      30.06R
$$

WIZ003>005-009-010-017-018-051200-
NORTH CENTRAL WISCONSIN

CITY           SKY/WX    TMP DP  RH WIND       PRES   REMARKS
MANITOWISH WTR FOG       27  27 100 CALM      30.01R VSB 1/4
ARBOR VITAE    PTCLDY    32  30  93 CALM      30.01R
WOODRUFF       PTCLDY    32  30  93 CALM      30.01R
RHINELANDER    PTCLDY    27  24  89 CALM      30.02R
EAGLE RIVER    CLEAR     26  26  99 CALM      30.01R
LAND O LAKES   CLEAR     25  24  97 CALM      30.02R
PHILLIPS       CLOUDY    29  29  99 CALM      30.01R
TOMAHAWK       PTCLDY    26  25  96 CALM      30.02R
MEDFORD        CLOUDY    31  31 100 CALM      30.02R
MERRILL        CLOUDY    28  28  99 CALM      30.02R
$$

WIZ029-030-035-036-043>047-051200-
CENTRAL WISCONSIN

CITY           SKY/WX    TMP DP  RH WIND       PRES   REMARKS
WAUSAU         CLOUDY    36  31  82 N6        30.00R WCI  31
MOSINEE        CLEAR     36  32  87 N7        30.01S WCI  30
MARSHFIELD     PTCLDY    38  30  73 N3        30.02R
STEVENS POINT  CLEAR     30  28  92 CALM      30.02R
WAUPACA        CLEAR     37  32  81 CALM      30.01R
WAUTOMA        CLEAR     32  29  88 CALM      30.02R
WISC RAPIDS    CLEAR     32  29  88 CALM      30.03R
CAMP DOUGLAS   FOG       27  27 100 W3        30.02R VSB 3/4
$$

WIZ011>013-019>022-031-037>040-048>050-051200-
NORTHEAST WISCONSIN

CITY           SKY/WX    TMP DP  RH WIND       PRES   REMARKS
ANTIGO         CLEAR     31  30  96 CALM      30.00S
SHAWANO        CLEAR     37  31  81 CALM      30.01R
OCONTO         CLEAR     33  33  99 NW3       30.00R
STURGEON BAY   CLEAR     37  30  75 N12       30.00S WCI  30
GREEN BAY      CLEAR     34  31  88 N7        30.00R WCI  28
MANITOWOC      CLEAR     37  33  85 NW8       29.98R WCI  31
APPLETON       PTCLDY    36  30  80 N7        29.98R WCI  30
CLINTONVILLE   CLEAR     34  30  86 CALM      30.01R
OSHKOSH        CLEAR     35  30  82 N10       29.99R WCI  27
$$

WIZ032>034-041-042-053>061-051200-
SOUTHWEST WISCONSIN

CITY           SKY/WX    TMP DP  RH WIND       PRES   REMARKS
LA CROSSE      CLEAR     39  32  76 CALM      30.04R
SPARTA         PTCLDY    28  27  94 CALM      30.05R
VIROQUA        CLEAR     35  31  87 NW5       30.02R WCI  31
BOSCOBEL       CLEAR     33  31  92 CALM      30.03R
PRAIRIE DU CHI CLEAR     36  32  84 CALM      30.03R HAZE
PLATTEVILLE    CLEAR     37  33  87 N3        30.00R
$$

WIZ056-057-062-063-064-067-068-051200-
SOUTH CENTRAL WISCONSIN

CITY           SKY/WX    TMP DP  RH WIND       PRES   REMARKS
REEDSBURG      CLEAR     35  32  88 CALM      30.01S
BARABOO/DELLS  CLEAR     36  31  84 CALM      30.01R
LONE ROCK      CLEAR     34  31  88 CALM      30.02R
MINERAL POINT  CLEAR     39  34  81 NE6       29.99S WCI  35
MADISON        PTCLDY    35  31  85 NW7       30.00R WCI  29
MIDDLETON      CLEAR     35  32  90 NW6       30.01R WCI  30
WATERTOWN      CLEAR     35  35 100 NW7       29.97R WCI  29
MONROE         CLEAR     36  32  87 N9        29.98R WCI  29
JANESVILLE     CLEAR     37  34  87 N6        29.97R WCI  33
$$

WIZ051-052-058>065-066-070>072-051200-
SOUTHEAST WISCONSIN

CITY           SKY/WX    TMP DP  RH WIND       PRES   REMARKS
MILWAUKEE      MOCLDY    41  32  70 N9        29.95R
WAUKESHA       MOCLDY    34  32  93 NW6       29.96S WCI  29
MILWAUKEE/TIMM CLOUDY    37  30  75 N7        29.96S WCI  32
RACINE         PTCLDY    41  33  73 N15       29.96R
BURLINGTON     CLEAR     36  31  85 NW7       29.95S WCI  30
KENOSHA        PTCLDY    39  32  76 N6        29.94R WCI  35
FOND DU LAC    CLEAR     34  31  88 NW7       29.99R WCI  28
SHEBOYGAN      CLOUDY    38  32  79 N10       29.97R WCI  31
WEST BEND      MOCLDY    36  32  87 N7        29.97R WCI  30
JUNEAU         CLEAR     35  32  87 N6        29.99R WCI  30
$$

LSZ147-162-051200-
LAKE SUPERIOR

STATION/POSITION TIME  TEMP    WIND        PRES    WAVE
                       AIR SEA DIR/SP/G            HT/PER
                 (UTC) (F)     (DEG/KT/KT) (MB)    (FT/S)
W MID LAKE BUOY  1050   37 36  170/  6/  8 1016.7F   1
DEVILS ISLAND    1000   38     190/  3/  4 1017.0R
PORT WING        1000   34     180/  3/  4 1016.6
SAXON HARBOR     1000   33     180/  4/  6 1015.6F
$$

LMZ867-665-643>646-051200-
LAKE MICHIGAN

STATION/POSITION TIME  TEMP    WIND        PRES    WAVE
                       AIR SEA DIR/SP/G            HT/PER
                 (UTC) (F)     (DEG/KT/KT) (MB)    (FT/S)
CHAMBERS ISLAND  1000   38     330/  9/ 13 1015.6R
N MID LAKE BUOY  1050   38 38  340/ 12/ 14 1014.9R   2/ 4
NORTHPORT PIER   1000   39     330/ 11/ 14 1014.9S
ALGOMA LAKESHORE 1015          320/ 12/ 15   N/A
KEWAUNEE LAKESHO 1000   37     330/  7/  9 1014.1R
SHEBOYGAN LAKESH 1100   40     340/ 13/ 16 1015.6R
PORT WASHINGTON  1000   40     340/  6/ 12 1014.9
S MID LAKE BUOY  1050   40 40   20/ 17/ 21 1012.6R   6/ 7
KENOSHA   LAKESH 1100   42     360/ 18/ 23 1013.9R
$$

TC  - TEMPERATURE IN CELSIUS
VSB - VISIBILITY IN STATUTE MILES
WCI - WIND CHILL INDEX
HX  - HEAT INDEX





USA.gov is the U.S. government's official web portal to all federal, state and local government web resources and services.